Find Local Weather

World > North America > United States > Kansas

Lake Wabaunsee, Kansas Regional Weather

Lat: 38.87N, Lon: 96.2W
Wx Zone: KSZ038
Feedback
Expires:201807231500;;928341
ASUS43 KTOP 231359
RWRKS 

WEATHER ROUNDUP FOR KANSAS
NATIONAL WEATHER SERVICE GOODLAND KS
900 AM CDT MON JUL 23 2018

NOTE:  "FAIR" INDICATES FEW OR NO CLOUDS BELOW 12,000 FEET WITH NO
SIGNIFICANT WEATHER AND/OR OBSTRUCTIONS TO VISIBILITY.


KSZ007>012-019>026-033>040-048>060-102>105-231500-
NORTHEAST KANSAS
  
CITY           SKY/WX    TMP DP  RH WIND       PRES   REMARKS
CONCORDIA      CLOUDY    74  65  73 NE3       30.11R                  
EMPORIA        MOSUNNY   72  63  73 CALM      30.08R                  
LAWRENCE       CLOUDY    76  66  71 E5        30.09R                  
MANHATTAN      CLOUDY    74  66  76 N3        30.09R                  
OLATHE IND     MOSUNNY   73  65  75 N6        30.09R                  
OLATHE EXE     MOSUNNY   73  64  73 NE7       30.08R                  
SALINA         CLOUDY    74  65  73 NE6       30.09S                  
TOPEKA BILLARD CLOUDY    73  66  78 NE5       30.09R                  
TOPEKA FORBES  PTSUNNY   74  65  73 NE6       30.08R                  
$$
  

SKY/WX - Weather  TMP - Temperature  DP - Dewpoint  RH - Relative Humidity
WIND - Wind Direction/Speed PRES - Barometric Pressure